Lid_Strength_Index
-0 -0 1 3 11 11 14 11 8 9 9 6 5 7 8 7 9 12 1 1 -0 -0 -1 -1 -2 -1 -2 -2 -2 -2 -2 -2 -2 -2 -2 -2 -2 -2 -2 -2 -2 -2 -2 -1 -1 -1 -1 -1 -1
3 2 3 6 13 16 15 9 9 8 7 5 6 6 7 9 4 4 3 0 -0 -0 -1 -1 -2 -2 -2 -2 -2 -2 -2 -2 -2 -2 -2 -2 -2 -2 -2 -2 -2 -2 -2 -2 -1 -1 -1 -1 -1
1 1 6 10 13 16 14 8 8 7 5 6 7 5 6 7 4 3 1 -0 -0 -0 -1 -1 -2 -2 -2 -2 -2 -2 -2 -2 -2 -2 -2 -2 -2 -2 -2 -2 -2 -2 -2 -2 -1 -1 -1 -1 -1
5 5 5 12 14 11 10 8 7 7 6 5 6 8 5 2 3 1 0 -0 -0 -0 -1 -1 -2 -2 -2 -2 -2 -2 -2 -2 -2 -2 -2 -1 -1 -1 -1 -1 -2 -2 -2 -2 -1 -1 -1 -1 -1
4 5 12 13 12 10 9 7 6 8 7 7 6 8 7 3 1 0 0 -0 0 -0 -0 -1 -2 -2 -2 -2 -2 -2 -2 -2 -2 -1 -1 -1 -1 -1 -1 -1 -1 -1 -1 -1 -1 -1 -1 -1 -1
7 7 13 15 13 10 8 6 6 7 7 7 7 7 7 2 2 1 0 0 -0 -0 -0 -1 -2 -2 -2 -2 -2 -2 -2 -2 -2 -2 -2 -1 -1 -1 -1 -1 -1 -1 -1 -1 -1 -1 -1 -1 -1
7 10 13 12 12 11 8 6 7 8 8 7 5 8 6 4 1 1 0 -0 -0 -0 -0 -1 -1 -1 -2 -2 -2 -1 -1 -0 -1 -1 -1 -1 -1 -2 -1 -1 -1 -1 -1 -1 -1 -1 -1 -1 -1
6 9 12 12 12 12 7 7 6 7 8 4 4 9 8 4 1 1 2 2 3 3 2 3 3 3 2 1 -1 -1 -1 -1 -1 -1 -2 -2 -2 -1 -2 -2 -1 -1 -1 -1 -1 -1 -1 -1 -2
4 11 14 12 11 10 7 8 6 5 7 6 5 5 4 2 1 2 2 3 4 4 5 4 4 4 3 1 0 -0 -1 -1 -1 -1 -3 -0 0 -0 -1 -2 -1 -1 -1 -1 -1 -1 -1 -1 -2
7 11 11 8 7 9 7 7 7 7 7 7 6 4 3 2 2 3 4 5 5 4 3 3 3 3 3 1 2 2 1 2 2 2 2 2 2 2 -1 -1 -2 -2 -2 -2 -1 -2 -1 -1 0
8 10 7 7 6 6 7 7 6 8 9 7 7 6 5 6 5 5 5 4 5 3 3 3 2 1 1 1 1 1 2 3 2 2 2 1 1 1 -0 -1 -0 -1 -2 -1 -1 -0 -0 -0 1
10 7 6 6 5 6 8 6 8 7 7 5 4 5 6 6 5 5 4 4 4 2 2 1 1 1 1 1 2 2 2 2 2 2 1 1 1 1 2 2 1 1 1 1 1 0 1 1 0
8 7 6 5 6 6 6 8 8 8 5 4 4 5 6 5 5 4 4 3 2 2 1 1 0 1 1 1 1 1 1 2 2 1 1 1 2 2 2 2 2 1 1 0 1 1 0 -0 0
7 7 7 6 7 7 8 8 7 6 4 5 4 6 6 5 4 4 2 2 2 1 1 0 0 0 0 1 1 1 2 2 2 2 2 2 3 3 2 2 2 2 1 0 0 1 1 2 -0
6 8 8 8 7 8 7 10 10 6 5 6 5 5 5 4 3 3 2 2 2 1 1 1 1 1 1 1 1 1 2 2 2 2 2 2 3 3 3 3 3 2 2 -0 -0 0 0 1 1
9 9 12 9 7 7 8 13 8 6 6 6 5 5 5 4 3 2 2 2 1 1 2 2 1 1 2 2 1 2 1 2 3 3 2 2 2 3 3 3 3 2 2 0 -0 1 1 2 1
10 14 13 11 7 8 9 12 8 6 6 7 6 5 4 4 3 2 2 1 1 2 2 2 1 2 2 2 2 3 3 2 2 3 3 2 2 1 3 3 3 2 1 0 1 1 2 2 2
14 13 12 13 9 9 10 10 9 7 7 7 6 5 5 5 4 3 2 1 1 2 1 2 1 2 3 2 3 3 3 3 3 3 2 1 2 1 2 2 3 2 2 2 2 2 2 2 2
9 11 12 11 8 10 11 11 10 8 7 7 6 6 6 5 3 2 2 1 1 1 2 2 3 3 3 3 3 4 4 3 3 2 2 2 1 1 2 2 2 2 2 2 2 2 2 2 1
9 11 12 10 9 10 11 12 9 8 8 7 7 6 6 5 4 3 3 2 2 2 2 2 3 3 3 3 3 3 3 3 3 3 2 1 1 0 0 1 1 1 2 2 2 3 3 3 2
10 11 11 11 10 9 11 13 11 8 7 7 6 6 5 5 5 4 3 3 2 2 2 2 3 2 3 2 2 2 3 4 4 3 3 2 0 0 0 1 1 1 1 2 2 2 3 4 2
12 8 8 9 11 16 11 18 12 10 10 8 7 7 6 5 4 4 3 3 3 2 1 2 2 3 2 2 3 3 4 5 4 3 2 2 0 0 0 0 1 1 2 2 2 1 2 3 4
9 7 8 8 10 13 14 16 13 10 12 10 8 7 6 5 4 4 3 2 3 1 1 1 2 2 2 2 3 3 3 3 2 2 2 2 1 1 0 0 1 1 1 2 2 2 2 2 3
6 9 9 10 12 18 15 15 15 13 11 10 8 7 5 5 4 3 3 3 3 1 2 2 2 3 2 2 2 3 3 3 3 3 3 2 2 1 1 0 1 1 1 2 1 2 2 2 2
9 11 15 16 18 20 13 15 15 10 9 8 8 7 5 5 4 4 4 5 3 3 3 2 3 3 3 2 2 2 3 3 3 3 3 3 3 3 2 1 1 1 1 1 1 2 2 2 3
10 11 15 20 19 19 13 17 14 9 7 6 6 6 5 5 4 4 4 4 4 3 3 3 3 3 3 3 2 2 2 2 3 2 2 2 3 2 1 1 1 1 1 1 2 0 0 2 2
10 12 10 13 14 18 16 13 10 8 8 7 7 7 6 6 5 5 4 4 4 4 4 3 4 4 3 2 1 1 1 2 3 2 2 2 2 0 1 1 1 1 1 1 1 1 1 1 1
9 8 14 14 20 22 18 16 15 11 10 8 8 7 6 5 5 5 4 4 4 4 3 3 3 3 4 1 2 1 1 2 2 2 2 2 2 1 1 1 2 1 1 1 1 1 2 2 1
10 12 12 13 15 19 20 17 9 9 8 8 7 6 6 5 5 6 5 3 3 3 4 3 3 4 3 2 1 2 2 2 1 2 2 1 1 1 1 1 0 1 1 1 1 2 1 2 2
8 10 12 16 18 16 17 17 7 8 8 7 7 6 6 5 6 5 5 4 4 4 4 4 3 3 2 1 2 2 2 2 2 2 2 2 2 2 0 1 1 0 1 0 2 1 1 1 1